Shirley, NY

4:57 AM EDT on May 27, 2017 (GMT -0400)
Brookhaven

Weather History for KHWV - February, 2013

Change the Weather History Date:

Wednesday, February 13, 2013

  Actual Average (KISP) Record (KISP)
Temperature  
Mean Temperature 34 °F -  
Max Temperature 43 °F 38 °F 56 °F (2008)
Min Temperature 25 °F 23 °F 4 °F (2016)
Degree Days  
Heating Degree Days 31    
Moisture  
Dew Point 24 °F    
Average Humidity 67    
Maximum Humidity 100    
Minimum Humidity 43    
Precipitation  
Precipitation 0.00 in - - ()
Sea Level Pressure  
Sea Level Pressure 29.82 in    
Wind  
Wind Speed 3 mph (West)    
Max Wind Speed 10 mph    
Max Gust Speed -    
Visibility 9 miles    
Events Snow    
Averages and records for this station are not official NWS values.
T = Trace of Precipitation, MM = Missing Value Source: NWS Daily Summary

Daily Weather History Graph

Daily Weather History Graph

Search for Another Location

Airport or City:

Trip Planner

Search our weather history database for the weather conditions in past years. The results will help you decide how hot, cold, wet, or windy it might be!

Date:

Astronomy

Feb. 13, 2013 Rise Set
Actual Time 6:47 AM EST 5:24 PM EST
Civil Twilight 6:19 AM EST 5:52 PM EST
Nautical Twilight 5:47 AM EST 6:24 PM EST
Astronomical Twilight 5:15 AM EST 6:56 PM EST
Moon 8:13 AM EST (2/13) 9:25 PM EST (2/13)
Length of Visible Light 11h 32m
Length of Day
10h 36m
Waxing Crescent, 13% of the Moon is Illuminated
Feb 13
Waxing Crescent
Feb 17
First Quarter
Feb 25
Full
Mar 4
Last Quarter
Mar 11
New

Hourly Weather History & Observations

Time (EST) Temp. Windchill Dew Point Humidity Pressure Visibility Wind Dir Wind Speed Gust Speed Precip Events Conditions
12:56 AM 30.9 °F - 21.0 °F 67% 29.93 in 10.0 mi Calm Calm - N/A   Clear
1:56 AM 28.9 °F 23.9 °F 21.0 °F 72% 29.94 in 10.0 mi West 4.6 mph - N/A   Clear
2:56 AM 27.0 °F 23.0 °F 19.9 °F 75% 29.95 in 10.0 mi West 3.5 mph - N/A   Clear
3:56 AM 26.1 °F 21.9 °F 19.0 °F 75% 29.94 in 10.0 mi West 3.5 mph - N/A   Clear
4:56 AM 27.0 °F 21.6 °F 21.9 °F 81% 29.91 in 10.0 mi NW 4.6 mph - N/A   Clear
5:56 AM 26.1 °F - 18.0 °F 71% 29.92 in 10.0 mi Calm Calm - N/A   Clear
6:56 AM 25.0 °F - 19.0 °F 78% 29.92 in 10.0 mi Calm Calm - N/A   Clear
7:56 AM 28.0 °F - 28.0 °F 100% 29.92 in 10.0 mi Calm Calm - N/A   Clear
8:56 AM 35.1 °F - 30.0 °F 82% 29.91 in 10.0 mi Calm Calm - N/A   Clear
9:56 AM 39.0 °F 34.8 °F 21.0 °F 49% 29.89 in 10.0 mi NNW 5.8 mph - N/A   Clear
10:56 AM 39.0 °F 36.8 °F 21.0 °F 49% 29.89 in 10.0 mi SSW 3.5 mph - N/A   Clear
11:56 AM 37.9 °F 32.7 °F 21.9 °F 53% 29.88 in 10.0 mi South 6.9 mph - N/A   Clear
12:56 PM 39.9 °F 37.8 °F 21.9 °F 49% 29.84 in 10.0 mi West 3.5 mph - N/A   Clear
1:56 PM 43.0 °F - 21.9 °F 43% 29.80 in 10.0 mi Calm Calm - N/A   Clear
2:56 PM 39.9 °F 34.5 °F 24.1 °F 53% 29.79 in 10.0 mi South 8.1 mph - N/A   Clear
3:56 PM 39.0 °F 35.7 °F 24.1 °F 55% 29.79 in 10.0 mi South 4.6 mph - N/A   Clear
4:56 PM 39.0 °F - 24.1 °F 55% 29.76 in 10.0 mi Calm Calm - N/A   Clear
5:56 PM 35.1 °F - 23.0 °F 61% 29.73 in 10.0 mi Calm Calm - N/A   Clear
6:56 PM 36.0 °F - 25.0 °F 64% 29.72 in 10.0 mi Calm Calm - N/A   Clear
7:56 PM 35.1 °F - 25.0 °F 67% 29.72 in 10.0 mi Calm Calm - N/A   Overcast
8:56 PM 35.1 °F - 25.0 °F 67% 29.71 in 10.0 mi Calm Calm - N/A   Overcast
9:56 PM 35.1 °F - 26.1 °F 70% 29.69 in 10.0 mi Calm Calm - N/A   Overcast
10:56 PM 35.1 °F 31.0 °F 26.1 °F 70% 29.72 in 10.0 mi WNW 4.6 mph - N/A   Overcast
11:32 PM 35.6 °F 30.7 °F 26.6 °F 70% 29.71 in 8.0 mi North 5.8 mph - 0.00 in Snow Light Snow
11:42 PM 33.8 °F 25.8 °F 26.6 °F 75% 29.71 in 1.8 mi North 10.4 mph - 0.00 in Snow Light Snow
11:52 PM 33.8 °F 28.6 °F 28.4 °F 81% 29.71 in 1.8 mi Variable 5.8 mph - 0.00 in Snow Light Snow
11:56 PM 34.0 °F 28.0 °F 28.0 °F 79% 29.70 in 2.0 mi North 6.9 mph - 0.00 in Snow Light Snow